Location: Litvinovka
(48.6667°N, 34.3500°E)
Time: 19:25:35
(UTC+00:00)

Cosmos 1025 Rocket - Pass Details

Date: 18 September 2020
Orbit: 595 x 617 km, 82.5° (Epoch: 20 October)

Event Time Altitude Azimuth Distance (km) Brightness Sun altitude
Rises 17:08:35 0° 352° (N) 2,885 6.9 -13.8°
Reaches altitude 10° 17:10:50 10° 354° (N) 1,979 6.0 -14.2°
Maximum altitude 17:15:12 71° 79° (E) 654 3.0 -14.8°
Enters shadow 17:19:13 12° 163° (SSE) 1,836 5.1 -15.5°
